,,,PA_Meas_PMT16A,,PR_Meas_QMR101_102,,RH_Meas_QMH101,,SR_Meas_QMS101,,TA_Meas_QMH101,,GenWind,,GenWind,
date,time,status,PA,status,PR,status,RH,status,SR,status,TA,status,DirAvg,status,SpdAvg,
2009-07-07, 00:00:05,VALID,1010.84,VALID,0,VALID,91.1659,VALID,0,VALID,22.6225,VALID,107,VALID,0.6125,
2009-07-07, 00:01:05,VALID,1010.8,VALID,0,VALID,91.1583,VALID,0,VALID,22.642,VALID,93,VALID,0.342969,
2009-07-07, 00:02:05,VALID,1010.78,VALID,0,VALID,91.1506,VALID,0,VALID,22.603,VALID,89,VALID,0.439844,
2009-07-07, 00:03:05,VALID,1010.74,VALID,0,VALID,91.0896,VALID,0,VALID,22.603,VALID,77,VALID,0.482422,
2009-07-07, 00:04:05,VALID,1010.75,VALID,0,VALID,91.0744,VALID,0,VALID,22.6225,VALID,71,VALID,0,
2009-07-07, 00:05:05,VALID,1010.75,VALID,0,VALID,91.0744,VALID,0,VALID,22.642,VALID,71,VALID,0,
2009-07-07, 00:06:05,VALID,1010.74,VALID,0,VALID,91.0439,VALID,0,VALID,22.6225,VALID,71,VALID,0,
2009-07-07, 00:07:05,VALID,1010.76,VALID,0,VALID,91.0667,VALID,0,VALID,22.6225,VALID,64,VALID,0,
2009-07-07, 00:08:05,VALID,1010.78,VALID,0,VALID,91.082,VALID,0,VALID,22.603,VALID,64,VALID,0,
2009-07-07, 00:09:05,VALID,1010.78,VALID,0,VALID,91.082,VALID,0,VALID,22.603,VALID,64,VALID,0,
2009-07-07, 00:10:05,VALID,1010.76,VALID,0,VALID,91.0515,VALID,0,VALID,22.5835,VALID,74,VALID,0,
2009-07-07, 00:11:05,VALID,1010.78,VALID,0,VALID,91.0591,VALID,0,VALID,22.5835,VALID,74,VALID,0,
2009-07-07, 00:12:05,VALID,1010.79,VALID,0,VALID,91.0667,VALID,0,VALID,22.5835,VALID,74,VALID,0,
2009-07-07, 00:13:05,VALID,1010.8,VALID,0,VALID,91.082,VALID,0,VALID,22.5835,VALID,74,VALID,0,
2009-07-07, 00:14:05,VALID,1010.84,VALID,0,VALID,91.0896,VALID,0,VALID,22.564,VALID,73,VALID,0.835547,
2009-07-07, 00:15:05,VALID,1010.86,VALID,0,VALID,91.143,VALID,0,VALID,22.5835,VALID,74,VALID,0.384375,
2009-07-07, 00:16:05,VALID,1010.85,VALID,0,VALID,91.1735,VALID,0,VALID,22.5623,VALID,97,VALID,0.603516,
2009-07-07, 00:17:05,VALID,1010.89,VALID,0,VALID,91.2193,VALID,0,VALID,22.5835,VALID,92,VALID,0.467187,
2009-07-07, 00:18:05,VALID,1010.86,VALID,0,VALID,91.2269,VALID,0,VALID,22.564,VALID,92,VALID,0.266016,
2009-07-07, 00:19:05,VALID,1010.89,VALID,0,VALID,91.2421,VALID,0,VALID,22.5835,VALID,91,VALID,0.567969,
2009-07-07, 00:20:05,VALID,1010.86,VALID,0,VALID,91.2574,VALID,0,VALID,22.564,VALID,86,VALID,0.147266,
2009-07-07, 00:21:05,VALID,1010.82,VALID,0,VALID,91.2574,VALID,0,VALID,22.564,VALID,86,VALID,0.0140625,
2009-07-07, 00:22:05,VALID,1010.82,VALID,0,VALID,91.2879,VALID,0,VALID,22.564,VALID,86,VALID,0.144531,
2009-07-07, 00:23:05,VALID,1010.85,VALID,0,VALID,91.2955,VALID,0,VALID,22.564,VALID,86,VALID,0.302344,
2009-07-07, 00:24:04,VALID,1010.88,VALID,0,VALID,91.265,VALID,0,VALID,22.564,VALID,86,VALID,0.0601562,
2009-07-07, 00:25:04,VALID,1010.87,VALID,0,VALID,91.2726,VALID,0,VALID,22.564,VALID,86,VALID,0.372656,
2009-07-07, 00:26:04,VALID,1010.88,VALID,0,VALID,91.2803,VALID,0,VALID,22.5623,VALID,86,VALID,0.26875,
2009-07-07, 00:27:04,VALID,1010.85,VALID,0,VALID,91.2879,VALID,0,VALID,22.5835,VALID,86,VALID,0.00429688,
2009-07-07, 00:28:04,VALID,1010.84,VALID,0,VALID,91.3184,VALID,0,VALID,22.603,VALID,86,VALID,0.040625,
2009-07-07, 00:29:04,VALID,1010.84,VALID,0,VALID,91.3413,VALID,0,VALID,22.5835,VALID,86,VALID,0,
2009-07-07, 00:30:04,VALID,1010.84,VALID,0,VALID,91.3413,VALID,0,VALID,22.5835,VALID,86,VALID,0,
2009-07-07, 00:31:04,VALID,1010.8,VALID,0,VALID,91.3718,VALID,0,VALID,22.5835,VALID,152,VALID,0,
2009-07-07, 00:32:04,VALID,1010.8,VALID,0,VALID,91.4023,VALID,0,VALID,22.564,VALID,152,VALID,0,
2009-07-07, 00:33:04,VALID,1010.76,VALID,0,VALID,91.4175,VALID,0,VALID,22.5835,VALID,152,VALID,0.0578125,
2009-07-07, 00:34:04,VALID,1010.76,VALID,0,VALID,91.4099,VALID,0,VALID,22.5429,VALID,153,VALID,0.404297,
2009-07-07, 00:35:04,VALID,1010.73,VALID,0,VALID,91.4099,VALID,0,VALID,22.564,VALID,153,VALID,0.435156,
2009-07-07, 00:36:04,VALID,1010.74,VALID,0,VALID,91.4404,VALID,0,VALID,22.564,VALID,153,VALID,0.215234,
2009-07-07, 00:37:04,VALID,1010.73,VALID,0,VALID,91.4633,VALID,0,VALID,22.5623,VALID,152,VALID,0.0730469,
2009-07-07, 00:38:04,VALID,1010.7,VALID,0,VALID,91.4557,VALID,0,VALID,22.564,VALID,153,VALID,0.118359,
2009-07-07, 00:39:04,VALID,1010.69,VALID,0,VALID,91.4404,VALID,0,VALID,22.564,VALID,152,VALID,0.280078,
2009-07-07, 00:40:04,VALID,1010.69,VALID,0,VALID,91.4099,VALID,0,VALID,22.5429,VALID,152,VALID,0.124219,
2009-07-07, 00:41:04,VALID,1010.67,VALID,0,VALID,91.4175,VALID,0,VALID,22.5446,VALID,152,VALID,0.105859,
2009-07-07, 00:42:04,VALID,1010.66,VALID,0,VALID,91.4328,VALID,0,VALID,22.564,VALID,152,VALID,0.0078125,
2009-07-07, 00:43:04,VALID,1010.66,VALID,0,VALID,91.4557,VALID,0,VALID,22.5835,VALID,152,VALID,0,
2009-07-07, 00:44:04,VALID,1010.66,VALID,0,VALID,91.5014,VALID,0,VALID,22.6013,VALID,152,VALID,0,
2009-07-07, 00:45:04,VALID,1010.66,VALID,0,VALID,91.4938,VALID,0,VALID,22.5835,VALID,152,VALID,0,
2009-07-07, 00:46:04,VALID,1010.68,VALID,0,VALID,91.4709,VALID,0.105969,VALID,22.5818,VALID,145,VALID,0,
2009-07-07, 00:47:04,VALID,1010.71,VALID,0,VALID,91.4404,VALID,0.105969,VALID,22.5818,VALID,130,VALID,0,
2009-07-07, 00:48:04,VALID,1010.73,VALID,0,VALID,91.4099,VALID,0,VALID,22.603,VALID,130,VALID,0,
2009-07-07, 00:49:04,VALID,1010.72,VALID,0,VALID,91.3947,VALID,0.105969,VALID,22.5623,VALID,130,VALID,0.199609,
2009-07-07, 00:50:04,VALID,1010.72,VALID,0,VALID,91.3947,VALID,0.105969,VALID,22.5623,VALID,135,VALID,0.835547,
2009-07-07, 00:51:04,VALID,1010.74,VALID,0,VALID,91.387,VALID,0.105969,VALID,22.5623,VALID,137,VALID,0.836328,
2009-07-07, 00:52:04,VALID,1010.73,VALID,0,VALID,91.387,VALID,0.105969,VALID,22.5411,VALID,145,VALID,1.11875,
2009-07-07, 00:53:04,VALID,1010.72,VALID,0,VALID,91.3565,VALID,0.105969,VALID,22.5818,VALID,158,VALID,0.611328,
2009-07-07, 00:54:04,VALID,1010.71,VALID,0,VALID,91.3642,VALID,0.105969,VALID,22.5818,VALID,165,VALID,0.455859,
2009-07-07, 00:55:04,VALID,1010.68,VALID,0,VALID,91.3718,VALID,0.105969,VALID,22.5623,VALID,172,VALID,0.626172,
2009-07-07, 00:56:04,VALID,1010.64,VALID,0,VALID,91.3413,VALID,0.105969,VALID,22.5429,VALID,172,VALID,0.460156,
2009-07-07, 00:57:04,VALID,1010.65,VALID,0,VALID,91.326,VALID,0.105969,VALID,22.5429,VALID,173,VALID,0.314453,
2009-07-07, 00:58:04,VALID,1010.59,VALID,0,VALID,91.326,VALID,0.105969,VALID,22.5234,VALID,173,VALID,0,
2009-07-07, 00:59:04,VALID,1010.59,VALID,0,VALID,91.3031,VALID,0.105969,VALID,22.5234,VALID,172,VALID,0.180469,
2009-07-07, 01:00:04,VALID,1010.58,VALID,0,VALID,91.3108,VALID,0.105969,VALID,22.5429,VALID,172,VALID,0.0988281,
2009-07-07, 01:01:04,VALID,1010.56,VALID,0,VALID,91.2879,VALID,0,VALID,22.5429,VALID,172,VALID,0.213672,
2009-07-07, 01:02:04,VALID,1010.51,VALID,0,VALID,91.2955,VALID,0.105969,VALID,22.5623,VALID,172,VALID,0.429297,
2009-07-07, 01:03:04,VALID,1010.5,VALID,0,VALID,91.3031,VALID,0.105969,VALID,22.564,VALID,198,VALID,0.642187,
2009-07-07, 01:04:04,VALID,1010.49,VALID,0,VALID,91.2955,VALID,0.105969,VALID,22.5623,VALID,205,VALID,0.578516,
2009-07-07, 01:05:04,VALID,1010.47,VALID,0,VALID,91.2879,VALID,0.105969,VALID,22.5623,VALID,205,VALID,0.43125,
2009-07-07, 01:06:04,VALID,1010.5,VALID,0,VALID,91.2574,VALID,0.105969,VALID,22.5818,VALID,205,VALID,0.387109,
2009-07-07, 01:07:04,VALID,1010.49,VALID,0,VALID,91.265,VALID,0.105969,VALID,22.6013,VALID,205,VALID,0.238672,
2009-07-07, 01:08:04,VALID,1010.44,VALID,0,VALID,91.2726,VALID,0.105969,VALID,22.5606,VALID,205,VALID,0.247266,
2009-07-07, 01:09:04,VALID,1010.46,VALID,0,VALID,91.2574,VALID,0.105969,VALID,22.5818,VALID,205,VALID,0,
2009-07-07, 01:10:04,VALID,1010.45,VALID,0,VALID,91.265,VALID,0.105969,VALID,22.603,VALID,205,VALID,0,
2009-07-07, 01:11:04,VALID,1010.44,VALID,0,VALID,91.2803,VALID,0.105969,VALID,22.5818,VALID,205,VALID,0,
2009-07-07, 01:12:04,VALID,1010.42,VALID,0,VALID,91.2726,VALID,0.105969,VALID,22.5623,VALID,205,VALID,0,
2009-07-07, 01:13:04,VALID,1010.42,VALID,0,VALID,91.2498,VALID,0.105969,VALID,22.5623,VALID,205,VALID,0,
2009-07-07, 01:14:04,VALID,1010.42,VALID,0,VALID,91.2269,VALID,0.105969,VALID,22.5429,VALID,205,VALID,0,
2009-07-07, 01:15:04,VALID,1010.42,VALID,0,VALID,91.2269,VALID,0.105969,VALID,22.5623,VALID,205,VALID,0,
2009-07-07, 01:16:04,VALID,1010.4,VALID,0,VALID,91.2574,VALID,0,VALID,22.564,VALID,205,VALID,0,
2009-07-07, 01:17:04,VALID,1010.41,VALID,0,VALID,91.2803,VALID,0,VALID,22.5623,VALID,205,VALID,0,
2009-07-07, 01:18:04,VALID,1010.41,VALID,0,VALID,91.3336,VALID,0,VALID,22.564,VALID,205,VALID,0,
2009-07-07, 01:19:04,VALID,1010.42,VALID,0,VALID,91.3794,VALID,0,VALID,22.5852,VALID,205,VALID,0,
2009-07-07, 01:20:04,VALID,1010.38,VALID,0,VALID,91.387,VALID,0,VALID,22.5446,VALID,205,VALID,0,
2009-07-07, 01:21:04,VALID,1010.37,VALID,0,VALID,91.4404,VALID,0,VALID,22.5446,VALID,205,VALID,0,
2009-07-07, 01:22:04,VALID,1010.38,VALID,0,VALID,91.4328,VALID,0,VALID,22.5446,VALID,205,VALID,0,
2009-07-07, 01:23:04,VALID,1010.39,VALID,0,VALID,91.4404,VALID,0,VALID,22.5446,VALID,205,VALID,0,
2009-07-07, 01:24:04,VALID,1010.36,VALID,0,VALID,91.4557,VALID,0,VALID,22.5658,VALID,205,VALID,0,
2009-07-07, 01:25:04,VALID,1010.38,VALID,0,VALID,91.4557,VALID,0,VALID,22.5446,VALID,205,VALID,0,
2009-07-07, 01:26:04,VALID,1010.34,VALID,0,VALID,91.4785,VALID,0,VALID,22.5251,VALID,205,VALID,0,
2009-07-07, 01:27:04,VALID,1010.31,VALID,0,VALID,91.4709,VALID,0,VALID,22.5056,VALID,205,VALID,0,
2009-07-07, 01:28:04,VALID,1010.3,VALID,0,VALID,91.509,VALID,0,VALID,22.5056,VALID,205,VALID,0,
2009-07-07, 01:29:04,VALID,1010.3,VALID,0,VALID,91.5243,VALID,0,VALID,22.4861,VALID,205,VALID,0,
2009-07-07, 01:30:04,VALID,1010.25,VALID,0,VALID,91.5395,VALID,0,VALID,22.4667,VALID,205,VALID,0,
2009-07-07, 01:31:04,VALID,1010.27,VALID,0,VALID,91.5777,VALID,0.105969,VALID,22.4455,VALID,205,VALID,0,
2009-07-07, 01:32:04,VALID,1010.25,VALID,0,VALID,91.5853,VALID,0.105969,VALID,22.4455,VALID,205,VALID,0,
2009-07-07, 01:33:04,VALID,1010.24,VALID,0,VALID,91.6005,VALID,0.105969,VALID,22.4065,VALID,205,VALID,0,
2009-07-07, 01:34:04,VALID,1010.27,VALID,0,VALID,91.6158,VALID,0.105969,VALID,22.4065,VALID,205,VALID,0,
2009-07-07, 01:35:04,VALID,1010.24,VALID,0,VALID,91.6539,VALID,0.105969,VALID,22.387,VALID,205,VALID,0,
2009-07-07, 01:36:04,VALID,1010.21,VALID,0,VALID,91.6768,VALID,0.105969,VALID,22.3481,VALID,205,VALID,0,
2009-07-07, 01:37:04,VALID,1010.24,VALID,0,VALID,91.6921,VALID,0.105969,VALID,22.3481,VALID,126,VALID,0,
2009-07-07, 01:38:04,VALID,1010.2,VALID,0,VALID,91.7302,VALID,0,VALID,22.3286,VALID,126,VALID,0,
2009-07-07, 01:39:04,VALID,1010.19,VALID,0,VALID,91.7683,VALID,0,VALID,22.3091,VALID,75,VALID,0,
2009-07-07, 01:40:04,VALID,1010.17,VALID,0,VALID,91.7683,VALID,0.105969,VALID,22.2897,VALID,63,VALID,0,
2009-07-07, 01:41:04,VALID,1010.12,VALID,0,VALID,91.7912,VALID,0.105969,VALID,22.2702,VALID,22,VALID,0,
2009-07-07, 01:42:04,VALID,1010.09,VALID,0,VALID,91.8064,VALID,0,VALID,22.2914,VALID,14,VALID,0,
2009-07-07, 01:43:04,VALID,1010.08,VALID,0,VALID,91.8446,VALID,0,VALID,22.2702,VALID,9,VALID,0,
2009-07-07, 01:44:04,VALID,1010.08,VALID,0,VALID,91.8598,VALID,0,VALID,22.2702,VALID,9,VALID,0,
2009-07-07, 01:45:04,VALID,1010.04,VALID,0,VALID,91.8751,VALID,0.105969,VALID,22.2702,VALID,9,VALID,0,
2009-07-07, 01:46:04,VALID,1010.07,VALID,0,VALID,91.9056,VALID,0.105969,VALID,22.2702,VALID,11,VALID,0,
2009-07-07, 01:47:04,VALID,1010.07,VALID,0,VALID,91.9132,VALID,0,VALID,22.2702,VALID,11,VALID,0,
2009-07-07, 01:48:04,VALID,1010.05,VALID,0,VALID,91.9285,VALID,0.105969,VALID,22.2719,VALID,11,VALID,0,
2009-07-07, 01:49:04,VALID,1010.06,VALID,0,VALID,91.9208,VALID,0.105969,VALID,22.2507,VALID,28,VALID,0,
2009-07-07, 01:50:04,VALID,1010.06,VALID,0,VALID,91.9361,VALID,0,VALID,22.2312,VALID,36,VALID,0,
2009-07-07, 01:51:04,VALID,1010.08,VALID,0,VALID,91.959,VALID,0,VALID,22.2312,VALID,36,VALID,0,
2009-07-07, 01:52:04,VALID,1010.07,VALID,0,VALID,91.959,VALID,0.105969,VALID,22.2329,VALID,36,VALID,0,
2009-07-07, 01:53:04,VALID,1010.05,VALID,0,VALID,91.9895,VALID,0.105969,VALID,22.2312,VALID,36,VALID,0,
2009-07-07, 01:54:04,VALID,1010.06,VALID,0,VALID,91.9971,VALID,0.105969,VALID,22.2118,VALID,36,VALID,0,
2009-07-07, 01:55:04,VALID,1010.06,VALID,0,VALID,92.0047,VALID,0.105969,VALID,22.1906,VALID,36,VALID,0,
2009-07-07, 01:56:04,VALID,1010.05,VALID,0,VALID,92.0123,VALID,0.105969,VALID,22.2118,VALID,36,VALID,0,
2009-07-07, 01:57:04,VALID,1010.08,VALID,0,VALID,92.0123,VALID,0,VALID,22.1923,VALID,36,VALID,0,
2009-07-07, 01:58:04,VALID,1010.08,VALID,0,VALID,92.02,VALID,0.105969,VALID,22.1923,VALID,36,VALID,0,
2009-07-07, 01:59:04,VALID,1010.08,VALID,0,VALID,92.02,VALID,0.105969,VALID,22.1923,VALID,36,VALID,0,
2009-07-07, 02:00:04,VALID,1010.08,VALID,0,VALID,92.0428,VALID,0.105969,VALID,22.1728,VALID,36,VALID,0,
2009-07-07, 02:01:04,VALID,1010.07,VALID,0,VALID,92.0505,VALID,0,VALID,22.194,VALID,36,VALID,0,
2009-07-07, 02:02:04,VALID,1010.06,VALID,0,VALID,92.0428,VALID,0,VALID,22.155,VALID,36,VALID,0,
2009-07-07, 02:03:04,VALID,1010.04,VALID,0,VALID,92.0505,VALID,0,VALID,22.1745,VALID,36,VALID,0,
2009-07-07, 02:04:04,VALID,1010.01,VALID,0,VALID,92.0733,VALID,0,VALID,22.1745,VALID,36,VALID,0,
2009-07-07, 02:05:04,VALID,1009.96,VALID,0,VALID,92.0886,VALID,0,VALID,22.1533,VALID,36,VALID,0,
2009-07-07, 02:06:04,VALID,1009.95,VALID,0,VALID,92.081,VALID,0,VALID,22.194,VALID,36,VALID,0,
2009-07-07, 02:07:04,VALID,1009.94,VALID,0,VALID,92.0962,VALID,0,VALID,22.194,VALID,36,VALID,0,
2009-07-07, 02:08:04,VALID,1009.92,VALID,0,VALID,92.1039,VALID,0,VALID,22.194,VALID,36,VALID,0,
2009-07-07, 02:09:04,VALID,1009.93,VALID,0,VALID,92.0962,VALID,0,VALID,22.194,VALID,36,VALID,0,
2009-07-07, 02:10:04,VALID,1009.92,VALID,0,VALID,92.1267,VALID,0,VALID,22.194,VALID,36,VALID,0,
2009-07-07, 02:11:04,VALID,1009.94,VALID,0,VALID,92.1191,VALID,0,VALID,22.194,VALID,36,VALID,0,
2009-07-07, 02:12:04,VALID,1009.94,VALID,0,VALID,92.1191,VALID,0,VALID,22.194,VALID,36,VALID,0,
2009-07-07, 02:13:04,VALID,1009.92,VALID,0,VALID,92.1115,VALID,0,VALID,22.194,VALID,36,VALID,0,
2009-07-07, 02:14:04,VALID,1009.95,VALID,0,VALID,92.1344,VALID,0,VALID,22.194,VALID,36,VALID,0,
2009-07-07, 02:15:04,VALID,1009.95,VALID,0,VALID,92.1115,VALID,0,VALID,22.2151,VALID,36,VALID,0,
2009-07-07, 02:16:04,VALID,1009.93,VALID,0,VALID,92.1267,VALID,0.105969,VALID,22.1923,VALID,36,VALID,0,
2009-07-07, 02:17:04,VALID,1009.94,VALID,0,VALID,92.1267,VALID,0.105969,VALID,22.2118,VALID,36,VALID,0,
2009-07-07, 02:18:04,VALID,1009.91,VALID,0,VALID,92.1344,VALID,0.105969,VALID,22.2118,VALID,36,VALID,0,
2009-07-07, 02:19:04,VALID,1009.93,VALID,0,VALID,92.1267,VALID,0.105969,VALID,22.2118,VALID,69,VALID,0,
2009-07-07, 02:20:04,VALID,1009.88,VALID,0,VALID,92.1344,VALID,0.105969,VALID,22.2524,VALID,84,VALID,0,
2009-07-07, 02:21:04,VALID,1009.89,VALID,0,VALID,92.1115,VALID,0,VALID,22.2719,VALID,84,VALID,0,
2009-07-07, 02:22:04,VALID,1009.86,VALID,0,VALID,92.1344,VALID,0,VALID,22.2507,VALID,84,VALID,0,
2009-07-07, 02:23:04,VALID,1009.83,VALID,0,VALID,92.1267,VALID,0.105969,VALID,22.2312,VALID,84,VALID,0,
2009-07-07, 02:24:04,VALID,1009.8,VALID,0,VALID,92.1115,VALID,0.105969,VALID,22.2312,VALID,84,VALID,0,
2009-07-07, 02:25:04,VALID,1009.78,VALID,0,VALID,92.1039,VALID,0.105969,VALID,22.2507,VALID,84,VALID,0,
2009-07-07, 02:26:04,VALID,1009.72,VALID,0,VALID,92.1115,VALID,0.105969,VALID,22.2507,VALID,84,VALID,0,
2009-07-07, 02:27:04,VALID,1009.72,VALID,0,VALID,92.1039,VALID,0.105969,VALID,22.2507,VALID,84,VALID,0,
2009-07-07, 02:28:04,VALID,1009.73,VALID,0,VALID,92.0886,VALID,0.105969,VALID,22.2702,VALID,83,VALID,0,
2009-07-07, 02:29:04,VALID,1009.7,VALID,0,VALID,92.081,VALID,0.105969,VALID,22.2702,VALID,83,VALID,0,
2009-07-07, 02:30:04,VALID,1009.67,VALID,0,VALID,92.0886,VALID,0.105969,VALID,22.2507,VALID,80,VALID,0,
2009-07-07, 02:31:04,VALID,1009.66,VALID,0,VALID,92.0733,VALID,0,VALID,22.2524,VALID,80,VALID,0,
2009-07-07, 02:32:04,VALID,1009.64,VALID,0,VALID,92.0581,VALID,0,VALID,22.2507,VALID,80,VALID,0,
2009-07-07, 02:33:04,VALID,1009.64,VALID,0,VALID,92.0505,VALID,0,VALID,22.2719,VALID,80,VALID,0,
2009-07-07, 02:34:04,VALID,1009.64,VALID,0,VALID,92.0352,VALID,0,VALID,22.2312,VALID,80,VALID,0,
2009-07-07, 02:35:04,VALID,1009.63,VALID,0,VALID,92.02,VALID,0,VALID,22.2524,VALID,80,VALID,0,
2009-07-07, 02:36:04,VALID,1009.61,VALID,0,VALID,92.02,VALID,0,VALID,22.2329,VALID,80,VALID,0,
2009-07-07, 02:37:04,VALID,1009.61,VALID,0,VALID,92.0276,VALID,0,VALID,22.2524,VALID,80,VALID,0,
2009-07-07, 02:38:04,VALID,1009.61,VALID,0,VALID,92.0123,VALID,0,VALID,22.2524,VALID,80,VALID,0,
2009-07-07, 02:39:04,VALID,1009.63,VALID,0,VALID,91.9895,VALID,0,VALID,22.2524,VALID,138,VALID,0.517187,
2009-07-07, 02:40:04,VALID,1009.65,VALID,0,VALID,91.9971,VALID,0,VALID,22.2524,VALID,153,VALID,0.671484,
2009-07-07, 02:41:04,VALID,1009.66,VALID,0,VALID,91.9971,VALID,0,VALID,22.2329,VALID,153,VALID,0.604297,
2009-07-07, 02:42:04,VALID,1009.67,VALID,0,VALID,91.9742,VALID,0,VALID,22.2329,VALID,152,VALID,0.852734,
2009-07-07, 02:43:04,VALID,1009.69,VALID,0,VALID,91.9818,VALID,0,VALID,22.2329,VALID,138,VALID,0.800391,
2009-07-07, 02:44:04,VALID,1009.7,VALID,0,VALID,91.9742,VALID,0,VALID,22.2329,VALID,135,VALID,0.617578,
2009-07-07, 02:45:04,VALID,1009.72,VALID,0,VALID,91.9818,VALID,0,VALID,22.2329,VALID,127,VALID,0.736328,
2009-07-07, 02:46:04,VALID,1009.7,VALID,0,VALID,91.9971,VALID,0,VALID,22.2524,VALID,127,VALID,0.782812,
2009-07-07, 02:47:04,VALID,1009.67,VALID,0,VALID,92.0123,VALID,0,VALID,22.2524,VALID,144,VALID,0.626953,
2009-07-07, 02:48:04,VALID,1009.64,VALID,0,VALID,91.9971,VALID,0,VALID,22.2524,VALID,127,VALID,0.558984,
2009-07-07, 02:49:04,VALID,1009.62,VALID,0,VALID,91.9818,VALID,0,VALID,22.2719,VALID,139,VALID,0.342578,
2009-07-07, 02:50:04,VALID,1009.62,VALID,0,VALID,92.0047,VALID,0,VALID,22.2524,VALID,130,VALID,0.246875,
2009-07-07, 02:51:04,VALID,1009.61,VALID,0,VALID,92.0047,VALID,0,VALID,22.2524,VALID,109,VALID,0.399219,
2009-07-07, 02:52:04,VALID,1009.61,VALID,0,VALID,91.9971,VALID,0,VALID,22.2719,VALID,81,VALID,0.413672,
2009-07-07, 02:53:04,VALID,1009.61,VALID,0,VALID,91.9742,VALID,0,VALID,22.2719,VALID,79,VALID,0.329297,
2009-07-07, 02:54:04,VALID,1009.59,VALID,0,VALID,91.9742,VALID,0,VALID,22.2719,VALID,79,VALID,0.373828,
2009-07-07, 02:55:04,VALID,1009.6,VALID,0,VALID,91.9742,VALID,0,VALID,22.2719,VALID,75,VALID,0.448828,
2009-07-07, 02:56:04,VALID,1009.59,VALID,0,VALID,91.959,VALID,0,VALID,22.2719,VALID,75,VALID,0.280469,
2009-07-07, 02:57:04,VALID,1009.56,VALID,0,VALID,91.9513,VALID,0,VALID,22.2914,VALID,75,VALID,0.571094,
2009-07-07, 02:58:04,VALID,1009.56,VALID,0,VALID,91.9285,VALID,0,VALID,22.2914,VALID,75,VALID,0.606641,
2009-07-07, 02:59:04,VALID,1009.59,VALID,0,VALID,91.9285,VALID,0,VALID,22.293,VALID,70,VALID,0.560547,
2009-07-07, 03:00:04,VALID,1009.58,VALID,0,VALID,91.9208,VALID,0,VALID,22.2719,VALID,74,VALID,0.802344,
2009-07-07, 03:01:04,VALID,1009.59,VALID,0,VALID,91.898,VALID,0.105969,VALID,22.2719,VALID,62,VALID,0.452344,
2009-07-07, 03:02:04,VALID,1009.57,VALID,0,VALID,91.898,VALID,0,VALID,22.2507,VALID,86,VALID,1.23164,
2009-07-07, 03:03:04,VALID,1009.57,VALID,0,VALID,91.8903,VALID,0,VALID,22.2329,VALID,98,VALID,1.06758,
2009-07-07, 03:04:04,VALID,1009.59,VALID,0,VALID,91.8903,VALID,0,VALID,22.2329,VALID,107,VALID,0.914063,
2009-07-07, 03:05:04,VALID,1009.57,VALID,0,VALID,91.8598,VALID,0,VALID,22.2134,VALID,89,VALID,0.693359,
2009-07-07, 03:06:04,VALID,1009.58,VALID,0,VALID,91.8675,VALID,0,VALID,22.2118,VALID,103,VALID,0.522656,
2009-07-07, 03:07:04,VALID,1009.57,VALID,0,VALID,91.8751,VALID,0,VALID,22.2134,VALID,74,VALID,0.359375,
2009-07-07, 03:08:04,VALID,1009.54,VALID,0,VALID,91.8751,VALID,0,VALID,22.2134,VALID,75,VALID,0.187109,
2009-07-07, 03:09:04,VALID,1009.53,VALID,0,VALID,91.8675,VALID,0,VALID,22.2118,VALID,75,VALID,0.405078,
2009-07-07, 03:10:04,VALID,1009.51,VALID,0,VALID,91.8675,VALID,0,VALID,22.2134,VALID,65,VALID,0.497656,
2009-07-07, 03:11:04,VALID,1009.51,VALID,0,VALID,91.8751,VALID,0,VALID,22.194,VALID,96,VALID,0.742188,
2009-07-07, 03:12:04,VALID,1009.49,VALID,0,VALID,91.8446,VALID,0,VALID,22.2134,VALID,99,VALID,0.388281,
2009-07-07, 03:13:04,VALID,1009.46,VALID,0,VALID,91.8522,VALID,0,VALID,22.194,VALID,66,VALID,0.245312,
2009-07-07, 03:14:04,VALID,1009.45,VALID,0,VALID,91.8522,VALID,0,VALID,22.194,VALID,9,VALID,0.759766,
2009-07-07, 03:15:04,VALID,1009.44,VALID,0,VALID,91.837,VALID,0,VALID,22.194,VALID,36,VALID,0.45,
2009-07-07, 03:16:04,VALID,1009.43,VALID,0,VALID,91.8522,VALID,0.105969,VALID,22.1923,VALID,36,VALID,0.0105469,
2009-07-07, 03:17:04,VALID,1009.42,VALID,0,VALID,91.8598,VALID,0.105969,VALID,22.1923,VALID,62,VALID,0.380859,
2009-07-07, 03:18:04,VALID,1009.39,VALID,0,VALID,91.8446,VALID,0.105969,VALID,22.1923,VALID,60,VALID,0.0648438,
2009-07-07, 03:19:04,VALID,1009.37,VALID,0,VALID,91.837,VALID,0.105969,VALID,22.1923,VALID,41,VALID,0.465625,
2009-07-07, 03:20:04,VALID,1009.35,VALID,0,VALID,91.837,VALID,0.105969,VALID,22.1923,VALID,39,VALID,0.333203,
2009-07-07, 03:21:04,VALID,1009.33,VALID,0,VALID,91.8598,VALID,0.105969,VALID,22.1711,VALID,39,VALID,0.0160156,
2009-07-07, 03:22:04,VALID,1009.32,VALID,0,VALID,91.8446,VALID,0.105969,VALID,22.1517,VALID,39,VALID,0.271875,
2009-07-07, 03:23:04,VALID,1009.28,VALID,0,VALID,91.8446,VALID,0.105969,VALID,22.1728,VALID,39,VALID,0.119531,
2009-07-07, 03:24:04,VALID,1009.3,VALID,0,VALID,91.8446,VALID,0.105969,VALID,22.1728,VALID,39,VALID,0.0574219,
2009-07-07, 03:25:04,VALID,1009.31,VALID,0,VALID,91.8598,VALID,0.105969,VALID,22.1533,VALID,39,VALID,0,
2009-07-07, 03:26:04,VALID,1009.29,VALID,0,VALID,91.8675,VALID,0.105969,VALID,22.1533,VALID,41,VALID,0.396094,
2009-07-07, 03:27:04,VALID,1009.29,VALID,0,VALID,91.8522,VALID,0.105969,VALID,22.1533,VALID,42,VALID,0.183203,
2009-07-07, 03:28:04,VALID,1009.27,VALID,0,VALID,91.8751,VALID,0.105969,VALID,22.1127,VALID,42,VALID,0.472266,
2009-07-07, 03:29:04,VALID,1009.27,VALID,0,VALID,91.8827,VALID,0.105969,VALID,22.1339,VALID,42,VALID,0.166406,
2009-07-07, 03:30:04,VALID,1009.26,VALID,0,VALID,91.8827,VALID,0.105969,VALID,22.1339,VALID,42,VALID,0.184766,
2009-07-07, 03:31:04,VALID,1009.25,VALID,0,VALID,91.8903,VALID,0.105969,VALID,22.1127,VALID,52,VALID,0.446094,
2009-07-07, 03:32:04,VALID,1009.25,VALID,0,VALID,91.898,VALID,0.105969,VALID,22.1339,VALID,24,VALID,0.428125,
2009-07-07, 03:33:04,VALID,1009.27,VALID,0,VALID,91.898,VALID,0.105969,VALID,22.1339,VALID,24,VALID,0.333984,
2009-07-07, 03:34:04,VALID,1009.25,VALID,0,VALID,91.9208,VALID,0.105969,VALID,22.1339,VALID,42,VALID,0.166016,
2009-07-07, 03:35:04,VALID,1009.24,VALID,0,VALID,91.9132,VALID,0.105969,VALID,22.1339,VALID,42,VALID,0.0015625,
2009-07-07, 03:36:04,VALID,1009.24,VALID,0,VALID,91.9208,VALID,0.105969,VALID,22.1144,VALID,64,VALID,0.412109,
2009-07-07, 03:37:04,VALID,1009.24,VALID,0,VALID,91.9056,VALID,0.105969,VALID,22.1339,VALID,64,VALID,0.18125,
2009-07-07, 03:38:04,VALID,1009.28,VALID,0,VALID,91.9285,VALID,0.105969,VALID,22.1144,VALID,64,VALID,0,
2009-07-07, 03:39:04,VALID,1009.27,VALID,0,VALID,91.9208,VALID,0.105969,VALID,22.1339,VALID,64,VALID,0,
2009-07-07, 03:40:04,VALID,1009.29,VALID,0,VALID,91.9361,VALID,0.105969,VALID,22.1339,VALID,64,VALID,0,
2009-07-07, 03:41:04,VALID,1009.33,VALID,0,VALID,91.9437,VALID,0.105969,VALID,22.1533,VALID,65,VALID,0,
2009-07-07, 03:42:04,VALID,1009.32,VALID,0,VALID,91.9513,VALID,0.105969,VALID,22.1339,VALID,75,VALID,0.0308594,
2009-07-07, 03:43:04,VALID,1009.34,VALID,0,VALID,91.9513,VALID,0.105969,VALID,22.1339,VALID,93,VALID,0.470313,
2009-07-07, 03:44:04,VALID,1009.37,VALID,0,VALID,91.9513,VALID,0.105969,VALID,22.1322,VALID,100,VALID,0.677734,
2009-07-07, 03:45:04,VALID,1009.38,VALID,0,VALID,91.9361,VALID,0.105969,VALID,22.1728,VALID,112,VALID,0.642187,
2009-07-07, 03:46:04,VALID,1009.41,VALID,0,VALID,91.9437,VALID,0,VALID,22.1745,VALID,118,VALID,0.752344,
2009-07-07, 03:47:04,VALID,1009.44,VALID,0,VALID,91.9361,VALID,0,VALID,22.194,VALID,109,VALID,0.435937,